IBONHE1 Weather Reports


time (UTC)temp
C
wind
direction
speed
KPH
gust
KPH
rain 1hr
cm
rain 24hr
cm
rain mn
cm
humidity
%
barometer
mb
20260507060023 10 321 0.0 4.8 0.00 0.03 0.00 86 1065.1
20260507054521 9 277 0.0 0.0 0.00 0.03 0.00 87 1065.0
20260507053018 9 245 0.0 0.0 0.00 0.03 0.00 87 1064.9
20260507051518 9 245 0.0 0.0 0.00 0.03 0.00 87 1064.7
20260507050036 9 245 0.0 0.0 0.00 0.03 0.00 87 1064.6
20260507044515 9 245 0.0 0.0 0.00 0.03 0.00 87 1064.4
20260507043014 9 240 0.0 0.0 0.00 0.03 0.00 87 1064.3
20260507041513 8 240 0.0 0.0 0.00 0.03 0.00 88 1064.2
20260507040011 8 240 0.0 0.0 0.00 0.03 0.00 88 1064.0
20260507034509 8 240 0.0 0.0 0.00 0.03 0.00 88 1063.8
20260507033008 8 240 0.0 0.0 0.00 0.03 0.00 88 1063.8
20260507031506 9 240 0.0 0.0 0.00 0.03 0.00 88 1063.8
20260507030006 8 240 0.0 0.0 0.00 0.03 0.00 88 1063.7
20260507024505 8 300 0.0 0.0 0.00 0.03 0.00 88 1063.6
20260507023003 9 300 0.0 0.0 0.00 0.03 0.00 88 1063.6
20260507021502 9 300 0.0 0.0 0.00 0.03 0.00 87 1063.5
20260507020002 9 300 0.0 0.0 0.00 0.03 0.00 87 1063.3
20260507014623 9 300 0.0 0.0 0.00 0.03 0.00 86 1063.2
20260507013101 9 300 0.0 0.0 0.00 0.03 0.00 86 1063.2
20260507011601 9 300 0.0 0.0 0.00 0.03 0.00 85 1063.2
20260507010056 9 300 0.0 0.0 0.00 0.03 0.00 85 1063.2
20260507004556 9 300 0.0 0.0 0.00 0.03 0.00 85 1063.2
20260507003154 9 300 0.0 0.0 0.00 0.03 0.00 84 1063.2
20260507001601 9 300 0.0 0.0 0.00 0.03 0.00 84 1063.1
20260507000116 9 300 0.0 0.0 0.00 0.03 0.00 84 1063.1
20260506234610 9 300 0.0 0.0 0.00 0.05 0.00 84 1063.1
20260506233050 9 300 0.0 0.0 0.00 0.05 0.00 83 1063.0
20260506231547 9 300 0.0 0.0 0.00 0.05 0.00 83 1063.0
20260506230052 10 300 0.0 0.0 0.00 0.05 0.00 82 1062.8
20260506224544 10 300 0.0 0.0 0.00 0.05 0.00 82 1062.6
20260506223040 10 300 0.0 0.0 0.00 0.05 0.00 81 1062.5
20260506221551 10 300 0.0 0.0 0.00 0.05 0.00 80 1062.4
20260506220044 10 300 0.0 0.0 0.00 0.05 0.00 81 1062.4
20260506214537 10 300 0.0 0.0 0.00 0.08 0.05 80 1062.4
20260506213043 10 300 0.0 0.0 0.00 0.08 0.05 79 1062.3
20260506211542 10 301 0.0 0.0 0.00 0.08 0.05 79 1062.2
20260506210043 10 301 0.0 0.0 0.00 0.08 0.05 78 1062.1
20260506204534 10 231 0.0 0.0 0.00 0.08 0.05 78 1062.0
20260506203032 11 231 0.0 0.0 0.00 0.08 0.05 76 1061.8
20260506201535 11 231 0.0 0.0 0.00 0.08 0.05 76 1061.8
20260506200031 11 131 0.0 4.8 0.00 0.08 0.05 75 1061.6
20260506194526 11 186 0.0 8.0 0.00 0.08 0.05 76 1061.6
20260506193038 11 269 0.0 1.6 0.00 0.08 0.05 76 1061.5
20260506191522 11 214 0.0 4.8 0.00 0.08 0.05 76 1061.2
20260506190021 11 240 1.6 9.7 0.00 0.08 0.05 75 1061.0
20260506184520 11 257 0.0 4.8 0.00 0.08 0.05 75 1061.0
20260506183019 11 295 1.6 9.7 0.00 0.08 0.05 73 1060.9
20260506181533 12 271 1.6 8.0 0.00 0.08 0.05 71 1060.5
20260506180014 12 295 1.6 9.7 0.00 0.08 0.05 70 1060.4
20260506174512 12 41 3.2 11.3 0.00 0.08 0.05 68 1060.2
20260506173010 12 224 0.0 9.7 0.00 0.08 0.05 67 1060.0
20260506171514 13 321 3.2 6.4 0.00 0.08 0.05 66 1059.8
20260506170007 13 240 1.6 8.0 0.00 0.08 0.05 63 1059.6
20260506164505 13 89 3.2 9.7 0.00 0.08 0.05 61 1059.5
20260506163001 14 114 0.0 8.0 0.00 0.08 0.05 64 1059.3
20260506161559 13 292 4.8 11.3 0.00 0.08 0.05 64 1059.2
20260506160059 14 266 0.0 6.4 0.00 0.08 0.05 66 1059.2
20260506154613 14 90 1.6 9.7 0.00 0.08 0.05 65 1059.2
20260506153057 15 293 1.6 6.4 0.00 0.08 0.05 66 1059.1
20260506151555 15 276 1.6 12.9 0.00 0.08 0.05 64 1059.0
20260506150055 15 255 3.2 12.9 0.00 0.08 0.05 62 1058.9
20260506144558 15 303 0.0 12.9 0.00 0.08 0.05 62 1058.9
20260506143052 15 336 1.6 8.0 0.00 0.08 0.05 63 1058.8
20260506141555 15 207 1.6 9.7 0.00 0.08 0.05 61 1058.9
20260506140053 15 15 1.6 6.4 0.00 0.08 0.05 62 1058.9
20260506134550 15 263 0.0 8.0 0.00 0.08 0.05 63 1058.8
20260506133101 15 70 0.0 8.0 0.00 0.08 0.05 63 1058.8
20260506131546 15 288 1.6 6.4 0.00 0.08 0.05 65 1058.8
20260506130045 15 290 1.6 14.5 0.00 0.08 0.05 65 1058.8
20260506124541 15 278 1.6 8.0 0.00 0.08 0.05 69 1058.7
20260506123042 13 262 0.0 1.6 0.00 0.08 0.05 72 1058.7
20260506121539 13 270 3.2 9.7 0.00 0.08 0.05 71 1058.7
20260506120039 13 280 0.0 8.0 0.00 0.08 0.05 71 1058.6
20260506114541 13 28 1.6 9.7 0.00 0.10 0.05 73 1058.6
20260506113038 13 266 1.6 9.7 0.00 0.10 0.05 73 1058.6
20260506111536 13 312 3.2 8.0 0.00 0.10 0.05 74 1058.6
20260506110042 13 235 3.2 9.7 0.00 0.10 0.05 72 1058.7
20260506104559 14 56 1.6 9.7 0.00 0.10 0.05 73 1058.7
20260506103039 14 328 3.2 11.3 0.00 0.10 0.05 76 1058.8
20260506101532 13 352 1.6 9.7 0.00 0.10 0.05 79 1058.7
20260506100031 13 27 1.6 6.4 0.00 0.10 0.05 82 1058.7
20260506094532 13 329 1.6 9.7 0.00 0.10 0.05 84 1058.7
20260506093021 12 316 1.6 6.4 0.00 0.10 0.05 86 1058.7
20260506091518 11 330 1.6 8.0 0.00 0.10 0.05 89 1058.6
20260506090014 11 254 0.0 6.4 0.00 0.10 0.05 92 1058.5
20260506084512 10 317 1.6 6.4 0.00 0.10 0.05 93 1058.6
20260506083025 10 259 0.0 6.4 0.00 0.10 0.05 93 1058.4
20260506081510 10 208 0.0 4.8 0.00 0.10 0.05 93 1058.3
20260506073009 8 271 0.0 4.8 0.03 0.10 0.05 93 1058.2
20260506071509 9 357 0.0 8.0 0.03 0.10 0.05 93 1058.2
20260506061505 8 358 0.0 4.8 0.00 0.08 0.05 91 1058.0